Location: Big Sable Point
(44.0575°N, 86.5149°W)
Time: 00:45:25
(UTC-04:00)

Tiangong 2 - Visible Passes

Search period start: 18 July 2018 00:00
Search period end: 28 July 2018 00:00
Orbit: 386 x 394 km, 42.8° (Epoch: 17 July)

Date Brightness Start Highest point End Pass type
(mag) Time Alt. Az. Time Alt. Az. Time Alt. Az.
18 Jul 3.9 00:29:19 10° W 00:29:35 12° W 00:29:35 12° W visible
18 Jul 1.1 21:54:41 10° W 21:57:52 71° S 22:01:02 10° E visible
18 Jul 1.7 23:31:33 10° W 23:34:18 41° SSW 23:34:18 41° SSW visible
19 Jul 1.2 22:33:50 10° W 22:36:58 56° S 22:39:01 19° ESE visible
20 Jul 3.9 00:11:06 10° WSW 00:11:19 11° WSW 00:11:19 11° WSW visible
20 Jul 2.2 23:13:07 10° W 23:15:56 28° SSW 23:16:02 28° SSW visible
21 Jul 1.8 22:15:19 10° W 22:18:21 40° SSW 22:20:45 14° SE visible
22 Jul 3.0 22:54:56 10° WSW 22:57:11 18° SSW 22:57:48 17° SSW visible
23 Jul 2.5 21:56:53 10° W 21:59:39 27° SSW 22:02:23 10° SE visible
24 Jul 3.7 22:37:41 10° SW 22:38:20 10° SW 22:38:59 10° SSW visible
